{"data":{"norad_id":66132,"epoch":"2026-09-20T06:13:17.611968Z","epoch_age_seconds":121241,"freshness":"FRESH","line1":"1 66132U 25237U   26263.25923162  .00017643  00000+0  53205-3 0  9994","line2":"2 66132  53.1585 212.7739 0001508  67.5203 292.5959 15.34401961 52355","mean_motion":15.34401961,"eccentricity":0.0001508,"inclination_deg":53.1585,"raan_deg":212.7739,"arg_perigee_deg":67.5203,"mean_anomaly_deg":292.5959,"bstar":0.00053205,"rev_number":5235,"period_min":93.847638141802,"perigee_km":461.66581387876,"apogee_km":463.72900953733,"semimajor_km":6840.834411708,"source":"CELESTRAK","updated_at":"2026-09-21T09:00:35.810026Z"}}